Location: Lawrence Hall of Science
(37.8785°N, 122.2415°W)
Time: 07:46:35
(UTC-07:00)

Cosmos 1461 - Visible Passes

Search period start: 29 July 2014 00:00
Search period end: 08 August 2014 00:00
Orbit: 536 x 667 km, 65.0° (Epoch: 27 July)

Date Brightness Start Highest point End Pass type
(mag) Time Alt. Az. Time Alt. Az. Time Alt. Az.
29 Jul 5.3 01:53:37 20° NNE 01:53:37 20° NNE 01:54:54 10° NNE visible
29 Jul 5.5 03:30:23 11° NW 03:30:45 11° NW 03:31:50 10° NNW visible
30 Jul 5.2 02:04:56 22° N 02:04:56 22° N 02:06:32 10° NNE visible
31 Jul 5.3 02:16:12 19° NNW 02:16:12 19° NNW 02:17:53 10° N visible
01 Aug 5.9 00:50:40 10° NE 00:50:40 10° NE 00:50:40 10° NE visible
01 Aug 5.6 02:27:25 14° NNW 02:27:25 14° NNW 02:28:47 10° N visible
02 Aug 5.7 01:01:51 14° NNE 01:01:51 14° NNE 01:02:27 10° NNE visible
03 Aug 5.7 01:12:59 16° N 01:12:59 16° N 01:13:58 10° NNE visible
04 Aug 5.7 01:24:04 15° NNW 01:24:04 15° NNW 01:25:09 10° N visible
05 Aug 5.9 01:35:05 11° NNW 01:35:05 11° NNW 01:35:37 10° NNW visible
06 Aug 5.7 00:09:18 14° NNE 00:09:18 14° NNE 00:09:55 10° NNE visible
07 Aug 5.6 00:20:08 17° N 00:20:08 17° N 00:21:18 10° N visible
